{"data":{"norad_id":60540,"epoch":"2026-05-25T02:25:35.205888Z","epoch_age_seconds":66588,"freshness":"FRESH","line1":"1 60540U 24149CA  26145.10110192  .00001691  00000+0  15420-3 0  9999","line2":"2 60540  97.6899 221.4098 0004635 131.1051 229.0571 14.96430722 96538","mean_motion":14.96430722,"eccentricity":0.0004635,"inclination_deg":97.6899,"raan_deg":221.4098,"arg_perigee_deg":131.1051,"mean_anomaly_deg":229.0571,"bstar":0.0001542,"rev_number":9653,"period_min":96.228978650974,"perigee_km":574.7113231095,"apogee_km":581.15960228242,"semimajor_km":6956.072462696,"source":"CELESTRAK","updated_at":"2026-05-25T13:38:02.148904Z"}}